Date String (YYYY-MM-DD hh:mm:ss) UTC,Instrument flags,Ambient pressure (hPa),Sample flow (lpm),Bypass flow (lpm),Sample temperature (°C),Ambient temperature (°C),ASC tube jacket temperature (°C),LED temperature (°C),Box temperature (°C),Sample RH (%),Span deviation,Mass concentration (μg/m³),Mass concentration (μg/m³),Mass concentration (μg/m³)
DateTimeUTC,F1_M11,P_M11,Q1_M11,Q2_M11,T1_M11,T2_M11,T3_M11,T4_M11,T5_M11,U1_M11,ZSPAN_M11,X0_M11,X2_M11,X1_M11
2021-11-01 11:00:00,,0828.7,4.99,0.00,24.3,23.5,00.0,33.5,26.1,20.1,0000.0,0009.28,0006.58,0006.17
2021-11-01 11:01:00,,0828.7,5.01,0.00,24.3,23.5,00.0,33.5,26.1,20.1,0000.0,0009.27,0006.59,0006.18
2021-11-01 11:02:00,,0828.7,5.00,0.00,24.3,23.5,00.0,33.5,26.2,20.1,0000.0,0009.44,0006.62,0006.18
2021-11-01 11:03:00,,0828.7,5.01,0.00,24.3,23.5,00.0,33.4,26.2,20.1,0000.0,0009.46,0006.61,0006.18
2021-11-01 11:04:00,,0828.7,5.00,0.00,24.3,23.5,00.0,33.4,26.2,20.1,0000.0,0009.31,0006.58,0006.20
2021-11-01 11:05:00,,0828.8,5.00,0.00,24.3,23.5,00.0,33.4,26.2,20.1,0000.0,0009.24,0006.58,0006.22
2021-11-01 11:06:00,,0828.7,5.00,0.00,24.3,23.5,00.0,33.4,26.2,20.1,0000.0,0009.39,0006.61,0006.24
2021-11-01 11:07:00,,0829.3,5.01,0.00,24.4,23.5,00.0,33.4,26.2,20.1,0000.0,0009.02,0006.65,0006.28
2021-11-01 11:08:00,,0829.2,4.99,0.00,24.4,23.5,00.0,33.4,26.2,20.1,0000.0,0009.13,0006.72,0006.32
2021-11-01 11:09:00,,0828.8,5.00,0.00,24.4,23.5,00.0,33.4,26.2,20.2,0000.0,0009.12,0006.76,0006.36
2021-11-01 11:10:00,,0828.9,5.01,0.00,24.4,23.5,00.0,33.4,26.2,20.2,0000.0,0009.21,0006.82,0006.39
2021-11-01 11:11:00,,0828.9,5.01,0.00,24.4,23.6,00.0,33.4,26.2,20.2,0000.0,0009.25,0006.86,0006.42
2021-11-01 11:12:00,,0828.8,4.99,0.00,24.4,23.6,00.0,33.4,26.2,20.8,0000.0,0009.26,0006.88,0006.45
2021-11-01 11:13:00,,0828.9,4.99,0.00,24.4,23.6,00.0,33.4,26.2,22.4,0000.0,0009.15,0006.89,0006.47
2021-11-01 11:14:00,,0828.9,5.00,0.00,24.4,23.6,00.0,33.4,26.3,21.5,0000.0,0009.14,0006.93,0006.50
2021-11-01 11:15:00,,0829.1,5.01,0.00,24.4,23.6,00.0,33.4,26.2,20.6,0000.0,0009.42,0006.95,0006.50
2021-11-01 11:16:00,,0829.1,4.98,0.00,24.4,23.6,00.0,33.4,26.2,20.5,0000.0,0010.40,0007.00,0006.51
2021-11-01 11:17:00,,0829.1,5.01,0.00,24.4,23.6,00.0,33.4,26.2,20.4,0000.0,0010.88,0006.97,0006.51
2021-11-01 11:18:00,,0829.1,4.99,0.00,24.4,23.6,00.0,33.4,26.2,20.3,0000.0,0010.81,0006.95,0006.51
2021-11-01 11:19:00,,0829.1,5.00,0.00,24.4,23.6,00.0,33.4,26.2,20.3,0000.0,0010.72,0006.93,0006.50
2021-11-01 11:20:00,,0829.0,5.01,0.00,24.4,23.6,00.0,33.4,26.2,20.3,0000.0,0010.67,0006.91,0006.50
2021-11-01 11:21:00,,0829.1,5.00,0.00,24.4,23.6,00.0,33.4,26.2,20.3,0000.0,0010.65,0006.88,0006.50
2021-11-01 11:22:00,,0829.1,4.99,0.00,24.4,23.6,00.0,33.4,26.2,20.3,0000.0,0011.42,0006.89,0006.50
2021-11-01 11:23:00,,0829.1,5.00,0.00,24.4,23.6,00.0,33.4,26.2,20.3,0000.0,0011.52,0006.93,0006.50
2021-11-01 11:24:00,,0829.1,5.01,0.00,24.4,23.5,00.0,33.4,26.2,20.3,0000.0,0011.64,0006.95,0006.50
2021-11-01 11:25:00,,0829.3,4.99,0.00,24.4,23.5,00.0,33.4,26.2,20.3,0000.0,0011.66,0006.93,0006.49
2021-11-01 11:26:00,,0829.3,5.00,0.00,24.4,23.5,00.0,33.4,26.2,20.3,0000.0,0011.40,0006.89,0006.48
2021-11-01 11:27:00,,0829.3,5.01,0.00,24.4,23.5,00.0,33.4,26.2,20.2,0000.0,0010.58,0006.84,0006.46
2021-11-01 11:28:00,,0829.2,5.00,0.00,24.4,23.5,00.0,33.4,26.2,20.2,0000.0,0009.93,0006.84,0006.45
2021-11-01 11:29:00,,0829.2,4.99,0.00,24.4,23.5,00.0,33.4,26.2,20.2,0000.0,0009.90,0006.86,0006.46
2021-11-01 11:30:00,,0829.2,5.00,0.00,24.4,23.6,00.0,33.4,26.2,20.1,0000.0,0009.98,0006.87,0006.46
2021-11-01 11:31:00,,0829.2,5.01,0.00,24.4,23.5,00.0,33.4,26.2,20.1,0000.0,0009.93,0006.85,0006.45
2021-11-01 11:32:00,,0829.2,5.00,0.00,24.3,23.5,00.0,33.4,26.2,20.1,0000.0,0009.90,0006.85,0006.44
2021-11-01 11:33:00,,0829.3,5.00,0.00,24.3,23.5,00.0,33.4,26.1,20.2,0000.0,0009.21,0006.82,0006.42
2021-11-01 11:34:00,,0829.3,4.99,0.00,24.3,23.5,00.0,33.4,26.1,20.2,0000.0,0009.17,0006.76,0006.38
2021-11-01 11:35:00,,0829.3,5.00,0.00,24.3,23.5,00.0,33.4,26.1,20.2,0000.0,0009.02,0006.66,0006.32
2021-11-01 11:36:00,,0829.4,5.00,0.00,24.3,23.5,00.0,33.4,26.1,20.2,0000.0,0009.07,0006.62,0006.27
2021-11-01 11:37:00,,0829.5,5.00,0.00,24.3,23.5,00.0,33.4,26.1,20.2,0000.0,0008.94,0006.57,0006.20
2021-11-01 11:38:00,,0829.5,5.01,0.00,24.3,23.5,00.0,33.4,26.1,20.2,0000.0,0008.91,0006.55,0006.13
2021-11-01 11:39:00,,0829.5,5.00,0.00,24.3,23.5,00.0,33.4,26.1,20.2,0000.0,0008.90,0006.49,0006.06
2021-11-01 11:40:00,,0829.5,5.00,0.00,24.3,23.5,00.0,33.4,26.1,20.2,0000.0,0008.81,0006.36,0005.97
2021-11-01 11:41:00,,0829.5,4.99,0.00,24.3,23.4,00.0,33.3,26.1,20.2,0000.0,0008.85,0006.25,0005.89
2021-11-01 11:42:00,,0829.5,5.02,0.00,24.3,23.4,00.0,33.3,26.1,20.2,0000.0,0008.81,0006.18,0005.81
2021-11-01 11:43:00,,0829.5,4.99,0.00,24.3,23.4,00.0,33.3,26.1,20.1,0000.0,0008.73,0006.10,0005.74
2021-11-01 11:44:00,,0829.5,5.02,0.00,24.3,23.4,00.0,33.3,26.1,20.1,0000.0,0008.73,0006.02,0005.67
2021-11-01 11:45:00,,0829.5,4.99,0.00,24.2,23.4,00.0,33.3,26.1,20.1,0000.0,0008.73,0005.97,0005.63
2021-11-01 11:46:00,,0829.5,5.00,0.00,24.2,23.4,00.0,33.3,26.1,20.1,0000.0,0008.65,0005.95,0005.61
2021-11-01 11:47:00,,0829.6,5.00,0.00,24.2,23.4,00.0,33.3,26.1,20.1,0000.0,0008.43,0005.89,0005.59
2021-11-01 11:48:00,,0829.6,4.99,0.00,24.2,23.4,00.0,33.3,26.1,20.1,0000.0,0008.36,0005.87,0005.58
2021-11-01 11:49:00,,0829.5,5.00,0.00,24.2,23.4,00.0,33.3,26.1,20.1,0000.0,0008.34,0005.86,0005.59
2021-11-01 11:50:00,,0829.6,5.01,0.00,24.2,23.4,00.0,33.3,26.0,20.1,0000.0,0008.35,0005.86,0005.58
2021-11-01 11:51:00,,0829.6,5.01,0.00,24.2,23.4,00.0,33.3,26.0,20.1,0000.0,0008.34,0005.89,0005.57
2021-11-01 11:52:00,,0829.6,5.00,0.00,24.2,23.4,00.0,33.3,26.0,20.1,0000.0,0008.16,0005.90,0005.56
2021-11-01 11:53:00,,0829.5,4.98,0.00,24.2,23.4,00.0,33.3,26.0,20.1,0000.0,0008.11,0005.88,0005.56
2021-11-01 11:54:00,,0829.6,5.01,0.00,24.2,23.4,00.0,33.3,26.0,20.1,0000.0,0008.22,0005.89,0005.55
2021-11-01 11:55:00,,0829.6,4.98,0.00,24.2,23.4,00.0,33.3,26.0,20.1,0000.0,0008.11,0005.88,0005.55
2021-11-01 11:56:00,,0829.6,5.01,0.00,24.2,23.3,00.0,33.3,26.0,20.1,0000.0,0008.22,0005.87,0005.55
2021-11-01 11:57:00,,0829.6,5.01,0.00,24.2,23.3,00.0,33.3,26.0,20.1,0000.0,0008.80,0005.87,0005.54
2021-11-01 11:58:00,,0829.7,5.00,0.00,24.2,23.3,00.0,33.2,26.0,20.1,0000.0,0009.20,0005.89,0005.53
2021-11-01 11:59:00,,0829.6,4.99,0.00,24.2,23.3,00.0,33.2,26.0,20.0,0000.0,0009.50,0005.89,0005.51
